Saskatoon John G. Diefenbaker International Airport

Jump to: basic info | weather | frequencies | runways | comments

Related pages: nearby airports | nearby navaids | notams | map

Basic information (top)

Codes: YXE CYXE
Location: lon 52.170799, lat -106.699997, elev 1,653 ft / 504 m msl
Status: medium_airport
Scheduled airline service: yes
Links: Wikipedia Mobile

Weather (top)

Current conditions (rec'd 2015/01/31 09:00Z):

CYXE 310900Z 05014G20KT 15SM FEW075 M17/M21 A3047 RMK AC1 SLP363

Airport forecast (rec'd 2015/01/31 06:42Z):

TAF CYXE 310540Z 3106/0106 06012G22KT P6SM SCT020 OVC040 
      TEMPO 3106/3109 5SM -SN OVC020 
     FM310900 04012G22KT P6SM BKN020 
      TEMPO 3109/3113 SCT020 BKN120 
     FM311300 04012KT P6SM SCT020 BKN180 
      BECMG 3119/3121 04008KT 
      BECMG 0102/0104 20008KT 
      RMK NXT FCST BY 311200Z

Frequencies (top)

Verify before use: may be inaccurate or out of date.

A/D: 119.9 MHz (APP/DEP)
A/G: 118.3 MHz (MF SASKATOON RDO)
ATIS: 128.4 MHz (ATIS)
CNTR: 134.325 MHz (WINNIPEG CNTR)
GND: 121.9 MHz (GND)
RCO: 122.5 MHz (EDMONTON RDO)
TWR: 118.3 MHz (TWR)

Runways (top)

09/27: 8,300 x 200 ft (2,530 x 61 m) — paved — lighted

15/33: 6,200 x 150 ft (1,890 x 46 m) — paved — lighted

Latest comments (top)

Timmies: Timmies in the main terminal. Park at ... [read]

More... (top)

See also NOTAMs and nearby airports and navaids, or visit the Saskatoon John G. Diefenbaker International Airport page at the main OurAirports website..